Showing default

SPEKTR R, 37755

Orbit data source: Space-Track

SPEKTR R, 37755 is a Commonwealth of Independent States-origin payload satellite in HEO that was launched on Mon, 18 Jul 2011 UTC via a ZENIT-3SLBF launch vehicle from the Tyuratam Missile And Space Complex (TTMTR). Payload-class satellites include a variety of spacecraft equipped with specific instruments for various scientific and technological missions. These include communications satellites like Starlink; space stations such as the ISS; scientific satellites like the Hubble; Earth observation satellites from companies like Planet Labs, Umbra, and HawkEye 360; GPS; miniature CubeSats for education and research; and military/defense satellites.

Loading next visibility...
Identifier
37755, 2011-037A
Orbit
HEO
Last TLE update
1 week ago
Origin
Manufacturer
Lavochkin
Mission
Non-operational Civil Astronomy
Bus & Motor
NAVIGATOR, Unknown motor
Mass
3,660 kg wet, ~3,160 kg dry
Launch date (UTC)
2011-07-18 (14 years ago)
Launch vehicle
ZENIT-3SLBF
Launch site
Tyuratam Missile And Space Complex (TTMTR)
Object type
Payload
Rocket body
Debris
Shape & HBR
Box + 2 Pan + 1 Dish, 18 m
Radar Cross Section
18.197 m², Large (>1 m²)

Expand to show TLE details & history

TLE from 1 week ago
0 SPEKTR R
1 37755U 11037A   25119.95563843 -.00000588  00000-0  00000-0 0  9992
2 37755  84.6858 324.3165 6808057 328.6791 358.7866  0.10794473  5454
Epoch: 2025-04-29T22:56Z
Definitive object data (Epoch: 2025-04-29T22:56:07.16Z)
Latitude
-39.25411°
Longitude
117.3405°
Altitude
55,423.211 km
Speed
3.281 km/s
True Right ascension
21h 18m 04s
True Declination
-39° 14' 05"
Sunlit
Object was in daylight at TLE epoch
Visualization TLE readout
Latitude
-26.68173°
Longitude
119.37223°
Altitude
55,948.367 km
Speed
3.264 km/s
Apparent Right ascension
21h 46m 07s
Apparent Declination
-29° 39' 29"
Sunlit
Object is in daylight
Visualization observer readout
Local Sidereal Time
15:09:14
Azimuth
108.69° ESE
Elevation
-25.107°
Doppler factor
1
Orbital elements
Apogee altitude
306,795.1 km
Perigee altitude
53,095.193 km
Semi-major axis
186,323.283 km
Eccentricity
0.6808057
Inclination
84.6858°
RAAN
324.3165°
Arg. of periapsis
328.6791°
True anomaly
351.30384°
Mean anomaly
358.7866°
Eccentric anomaly
356.20447°
Mean motion
0.02699 °/min
BSTAR
Unknown
Orbital period
13340.13 mins
Loading maneuver chart data...
Loading SW <> Apogee altitude chart data...
Loading historical data...
Loading historical data...
Loading historical data...
Loading historical data...
Loading historical data...
Loading historical data...
Loading historical data...

SPEKTR R Visibility forecast

Observer location: undefined°, undefined°

Span
Click to sort rows by Start time (UTC) header in descending order
Start Az.
Max El. time (UTC)
Max El. Az.
Max El.
End time (UTC)
End Az.
1312 mins2025-05-09 09:08:18.840Z109.993° ESE2025-05-09 14:05:18.840Z214.375° SW44.841°2025-05-10 07:00:18.840Z359.066° N
|